{"data":{"norad_id":52984,"intl_designator":"2022-075A","name":"COSMOS 2557 (706K)","alt_names":[],"object_type":"PAYLOAD","status":"ACTIVE","operator":null,"country":"CIS","launch_date":"2022-07-07","launch_site_code":"PLMSC","launch_vehicle":null,"mission":null,"orbit_class":"UNKNOWN","rcs_meters":null,"size_class":null,"mass_kg":null,"dimensions":null,"purposes":["earth_obs","nav"],"wikipedia_slug":null,"has_3d_model":false,"image_url":null,"decayed_at":null,"tle_current":{"epoch":"2026-09-18T00:32:17.951136Z","epoch_age_seconds":228796,"freshness":"STALE","line1":"1 52984U 22075A   26261.02242999 -.00000043  00000+0  00000+0 0  9994","line2":"2 52984  64.2385 311.2102 0012669 269.8938  90.0301  2.13102259 32695","mean_motion":2.13102259,"eccentricity":0.0012669,"inclination_deg":64.2385,"raan_deg":311.2102,"arg_perigee_deg":269.8938,"mean_anomaly_deg":90.0301,"bstar":0,"rev_number":3269,"period_min":675.73192642693,"perigee_km":19097.55066962,"apogee_km":19162.182849546,"semimajor_km":25508.003759583,"source":"CELESTRAK","updated_at":"2026-09-20T09:00:46.279012Z"}}}